ARIANE 5 DEB, 43383

Orbit data source: Space-Track

ARIANE 5 DEB, 43383 is space debris in HEO originally from a launch on Thu, 12 Jun 2008 UTC launched from the French Guiana (FRGUI). Debris objects in space refer to the collection of defunct objects orbiting the Earth. Examples of debris include non-operational satellites, rocket bodies, and fragments generated from explosions, collisions, or faulty payload assembly.

Loading next visibility...
Identifier
43383, 2008-030F
Orbit
HEO
Country
Flag of FRFR
Related business
Manufacturer
Thales Alenia
Mission
Spacecraft
Bus & Motor
Unknown
Mass
Unknown
Launch date (UTC)
2008-06-12 (17 years ago)
Launch vehicle
Unknown
Launch site
French Guiana (FRGUI)
Object type
Payload
Rocket body
Debris
Shape & HBR
Unknown
Radar Cross Section
Medium (>0.1 m² and <1 m²)

Expand to show TLE details & history
Last TLE update: 11 hours ago

TLE from 11 hours ago
0 ARIANE 5 DEB
1 43383U 08030F   25243.42241805  .00108372  00000-0  23368+0 0  9996
2 43383   2.0242 138.0343 6983023   2.1702 359.7945  2.57633552140957
Epoch: 2025-08-31T10:08Z
TLE epoch observation values (Epoch: 2025-08-31T10:08:16.919Z)
Latitude
-0.00001°
Longitude
6.14262°
Altitude
389.428 km
Speed
10.002 km/s
True Right ascension
09h 12m 13s
True Declination
0° 00' 00"
Sunlit
Object was in daylight at epoch
Visualization orbit readout
Latitude
Unknown
Longitude
Unknown
Altitude
Unknown
Speed
Unknown
Apparent Right ascension
Unknown
Apparent Declination
Unknown
Sunlit
N/A
Visualization observer readout
Local Sidereal Time
12:59:21
Azimuth
Unknown
Elevation
Unknown
Doppler factor
Unknown
Orbital elements
Apogee altitude
31,803.264 km
Perigee altitude
404.661 km
Semi-major axis
22,482.1 km
Eccentricity
0.6983
Inclination
2.0242°
RAAN
138.0343°
Arg. of periapsis
2.1702°
True anomaly
358.3841°
Mean anomaly
359.7945°
Eccentric anomaly
359.31889°
Mean motion
0.64385 °/min
Orbital period
559.13 mins
BSTAR
0.23368
Loading maneuver chart data...
Computing Atmospheric mass density...
Loading historical data...
Loading historical data...
Loading historical data...
Loading historical data...
Loading historical data...
Loading historical data...
Loading historical data...

Documentation

Showing up to 5 results
|